LiveATC.Net - Listen to live air traffic control over the Internet!


ICAO: URMT  IATA: STW   Airport: Stavropol Shpakovskoye Airport
City: Stavropol
Country: Russia   Continent: Europe
URMT METAR Weather: URMT 161300Z 06004MPS 9999 FEW023 31/05 Q1010 R07/010070 NOSIG RMK QFE718
URMT Flight Activity (FlightAware)

URMT Twr/App/Control
Feed Status: UP   Listeners: 0
Listen in your browser - HTML5 player (in browser, HTML5)
Click here to listen with your own player (launches your MP3 player)
URMT Twr/App/Control Audio Archives
FacilityFrequency
Stavropol Approach120.300
Stavropol Control118.250
Stavropol Tower120.900

NOTICE

Unauthorized use prohibited. See LiveATC.net Terms of Service


Find LiveATC Audio Streams


Airport/ARTCC Code

Frequency Search
(e.g., 124.400, 128.75)
Site-wide search
 


Browse LiveATC Feeds
Top 50 LiveATC Feeds
LiveATC Feed Map
Bad Weather Areas

LiveATC FAQ
Offer LiveATC feed
Contact LiveATC.net
Press Inquiries

LiveATC on iPhone
LiveATC on Android

Windows Phone
Windows 8/10

LiveATC Mobile
(Mobile browser)

ATC Audio Archives
Interesting Recordings

LiveATC Forums


Home Page
About LiveATC.net
Make a Donation
Terms of Use
Privacy Policy

Canadian Air Freqs

AIRMETs/SIGMETs

FAA Airport Status
Nat'l Airspace Status
Arrival Demand Charts


Server Software By:
Icecast.org
Liquidsoap